#timestamp,LO_Frequency,Hit,StdDev 
1511139615.7,286046992.1,N
1511139635.6,286046992.4,N
1511139655.4,286046991.4,N
1511139675.2,286046994.9,N
1511139695.0,286046998.2,N
1511139696.0,286046998.2,N
1511139715.8,286046999.7,N
1511139735.6,286047000.8,N
1511139755.4,286046998.5,N
1511139775.3,286046996.6,N
1511139795.1,286047002.2,N
1511139815.8,286047004.4,N
1511139835.7,286047001.9,N
1511139855.5,286047003.3,N
1511139875.3,286047004.3,N
1511139895.2,286047002.6,N
1511139915.9,286047001.3,N
1511139935.7,286046998.1,N
1511139955.6,286047001.1,N
1511139975.4,286046999.7,N
1511139995.2,286047002.0,N
1511140015.0,286047005.9,N
1511140016.0,286047005.9,N
1511140035.8,286047001.4,N
1511140055.6,286047004.3,N
1511140075.4,286047008.2,N
1511140095.3,286047003.4,N
1511140115.1,286047004.2,N
1511140135.8,286047008.6,N
1511140155.7,286047007.7,N
1511140175.5,286047009.0,N
1511140195.3,286047001.5,N
1511140215.2,286046998.2,N
1511140235.9,286046994.9,N
1511140255.7,286046991.0,N
1511140275.6,286046985.3,Y
1511140295.4,286046984.4,P
1511140315.2,286046980.8,N
1511140335.1,286046979.5,N
1511140336.0,286046979.5,N
1511140355.8,286046978.6,N
1511140375.6,286046982.2,N
1511140395.5,286046986.3,N
1511140415.3,286046980.0,N
1511140435.1,286046984.3,N
1511140455.8,286046987.3,N
1511140475.7,286046986.2,N
1511140495.5,286046986.8,N
1511140515.3,286046983.4,N
1511140535.2,286046980.5,Y
1511140555.0,286046996.0,P
1511140555.9,286046996.0,N
1511140575.7,286047000.3,N
1511140595.6,286046998.4,N
1511140615.4,286047007.6,N
1511140635.2,286047003.0,N
1511140655.1,286046996.5,N
1511140656.0,286046996.5,N
1511140675.8,286047001.1,N
1511140695.6,286047007.0,N
1511140715.5,286047001.7,N
1511140735.3,286047000.7,N
1511140755.1,286046995.7,N
1511140775.9,286047000.6,N
1511140795.7,286047003.7,N
1511140815.5,286047005.7,N
1511140835.3,286047001.2,N
1511140855.2,286046996.6,N
1511140875.0,286047001.1,N
1511140875.9,286047001.1,N
1511140895.7,286047002.3,N
1511140915.6,286046999.1,N
1511140935.4,286047000.6,N
1511140955.2,286046999.5,N
1511140975.1,286047001.6,N
1511140976.0,286047001.6,N
1511140995.8,286047001.5,N
1511141015.6,286046996.5,N
1511141035.5,286046995.7,N
1511141055.3,286046993.3,N
1511141075.1,286047002.8,N
1511141095.9,286047004.3,N
1511141115.7,286047008.7,N
1511141135.5,286047005.0,N
1511141155.4,286047012.3,Y
1511141175.2,286047012.4,P
1511141195.0,286047010.9,N
1511141195.9,286047010.9,N
1511141215.8,286047013.0,N
1511141235.6,286047016.1,Y
1511141255.4,286047002.4,P
1511141275.3,286046998.8,N
1511141295.1,286047002.8,N
1511141296.0,286047002.8,N
1511141315.8,286047007.0,N
1511141335.7,286047013.0,Y
1511141355.5,286047012.6,P
1511141375.3,286047021.3,P
1511141395.1,286047021.5,P
1511141415.9,286047020.2,N
1511141435.7,286047015.7,N
1511141455.5,286047015.4,N
1511141475.4,286047011.2,N
1511141495.2,286047009.6,N
1511141515.0,286047006.6,N
1511141515.9,286047006.6,N
1511141535.8,286047006.1,N
1511141555.6,286047006.1,N
1511141575.4,286047010.6,N
1511141595.3,286047011.1,N
1511141615.1,286047009.2,N
1511141616.0,286047009.2,N
1511141635.8,286047008.8,N
1511141655.7,286047001.7,N
1511141675.5,286047002.1,N
1511141695.3,286047003.8,N
1511141715.2,286046998.1,N
1511141735.9,286047006.0,N
1511141755.7,286047005.1,N
1511141775.5,286047005.7,N
1511141795.4,286047003.2,N
1511141815.2,286047000.0,N
1511141835.0,286046993.5,N
1511141835.9,286046993.5,N
1511141855.8,286046996.1,N
1511141875.6,286046998.8,N
1511141895.4,286047003.2,N
1511141915.3,286047004.2,N
1511141935.1,286047000.7,N
1511141936.0,286047000.7,N
1511141955.8,286046997.6,N
1511141975.7,286047000.6,N
1511141995.5,286046997.1,N
1511142015.3,286046997.6,N
1511142035.2,286047002.2,N
1511142055.9,286047000.9,N
1511142075.7,286047001.4,N
1511142095.6,286047003.3,N
1511142115.4,286047005.0,N
1511142135.2,286046999.9,N
1511142155.0,286047001.8,N
1511142156.0,286047001.8,N
1511142175.8,286047003.3,N
1511142195.6,286047003.8,N
1511142215.4,286047004.9,N
1511142235.3,286047003.1,N
1511142255.1,286047002.0,N
1511142275.8,286046996.4,N
1511142295.7,286046994.4,N
1511142315.5,286046988.9,Y
1511142335.3,286046999.1,P
1511142355.2,286046996.3,P
1511142375.0,286046992.2,P
1511142375.9,286046992.2,N
1511142395.7,286046992.0,N
1511142415.6,286046990.9,N
1511142435.4,286046991.9,N
1511142455.2,286046995.1,N
1511142475.1,286046995.1,N
1511142476.0,286046995.1,N
1511142495.8,286046999.3,N
1511142515.6,286046990.5,Y
1511142535.5,286046996.3,P
1511142555.3,286046995.3,P
1511142575.1,286047000.7,N
1511142595.9,286047002.7,N
1511142615.7,286047003.7,N
1511142635.5,286047005.8,N
1511142655.4,286047003.7,N
1511142675.2,286047005.6,N
1511142695.0,286047004.2,N
1511142695.9,286047004.2,N
1511142715.7,286047003.2,N
1511142735.6,286047003.5,N
1511142755.4,286047010.7,N
1511142775.2,286047006.8,N
1511142795.1,286047007.2,N
1511142796.0,286047007.2,N
1511142815.8,286047003.3,N
1511142835.6,286047004.0,N
1511142855.5,286047002.6,N
1511142875.3,286047005.6,N
1511142895.1,286047006.9,N
1511142915.9,286047000.1,N
1511142935.7,286047000.1,N
1511142955.5,286046998.2,N
1511142975.4,286046999.1,N
1511142995.2,286047001.1,N
1511143015.0,286046998.6,N
1511143015.9,286046998.6,N
1511143035.7,286046999.8,N
1511143055.6,286047004.6,N
1511143075.4,286047013.5,Y
1511143095.3,286047010.8,P
1511143115.1,286047010.1,N
1511143116.0,286047010.1,N
1511143135.8,286047006.6,N
1511143155.6,286047007.7,N
1511143175.5,286047009.8,Y
1511143195.3,286046996.8,P
